Terminal Aerodrome Forecast
Issued by NWS Columbia, SC

Home | Current Version | Previous Version | Text Only | Print | Product List | Glossary On
Versions: 1 2 3 4 5 6 7 8 9 10 11 12 13 14 15 16 17 18 19 20 21 22 23 24 25 26 27 28 29 30 31 32 33 34 35 36 37 38 39 40
000
FTUS42 KCAE 310200 AAA
TAFAGS
TAF AMD
KAGS 310249Z 3103/3124 VRB06KT P6SM BKN070
     FM310900 00000KT 5SM BR SCT020 BKN060
     FM311300 08007KT P6SM VCSH SCT030 OVC050=

USA.gov is the U.S. government's official web portal to all federal, state and local government web resources and services.